Index of /20260426/WXO-DD/model_rdps/10km/18/002
Name Last modified Size Description
Parent Directory -
20260426T18Z_MSC_RDPS_AbsoluteVorticity_IsbL-0250_RLatLon0.09_PT002H.grib2 2026-04-26 21:21 605K
20260426T18Z_MSC_RDPS_AbsoluteVorticity_IsbL-0500_RLatLon0.09_PT002H.grib2 2026-04-26 21:21 547K
20260426T18Z_MSC_RDPS_AbsoluteVorticity_IsbL-0700_RLatLon0.09_PT002H.grib2 2026-04-26 21:21 615K
20260426T18Z_MSC_RDPS_AbsoluteVorticity_IsbL-0850_RLatLon0.09_PT002H.grib2 2026-04-26 21:21 785K
20260426T18Z_MSC_RDPS_AirTemp_AGL-120m_RLatLon0.09_PT002H.grib2 2026-04-26 21:21 396K
20260426T18Z_MSC_RDPS_AirTemp_AGL-2m_RLatLon0.09_PT002H.grib2 2026-04-26 21:21 631K
20260426T18Z_MSC_RDPS_AirTemp_AGL-40m_RLatLon0.09_PT002H.grib2 2026-04-26 21:21 404K
20260426T18Z_MSC_RDPS_AirTemp_AGL-80m_RLatLon0.09_PT002H.grib2 2026-04-26 21:21 400K
20260426T18Z_MSC_RDPS_AirTemp_IsbL-0001_RLatLon0.09_PT002H.grib2 2026-04-26 21:21 274K
20260426T18Z_MSC_RDPS_AirTemp_IsbL-0005_RLatLon0.09_PT002H.grib2 2026-04-26 21:21 285K
20260426T18Z_MSC_RDPS_AirTemp_IsbL-0010_RLatLon0.09_PT002H.grib2 2026-04-26 21:21 292K
20260426T18Z_MSC_RDPS_AirTemp_IsbL-0020_RLatLon0.09_PT002H.grib2 2026-04-26 21:21 308K
20260426T18Z_MSC_RDPS_AirTemp_IsbL-0030_RLatLon0.09_PT002H.grib2 2026-04-26 21:21 324K
20260426T18Z_MSC_RDPS_AirTemp_IsbL-0050_RLatLon0.09_PT002H.grib2 2026-04-26 21:21 307K
20260426T18Z_MSC_RDPS_AirTemp_IsbL-0100_RLatLon0.09_PT002H.grib2 2026-04-26 21:21 406K
20260426T18Z_MSC_RDPS_AirTemp_IsbL-0150_RLatLon0.09_PT002H.grib2 2026-04-26 21:21 405K
20260426T18Z_MSC_RDPS_AirTemp_IsbL-0175_RLatLon0.09_PT002H.grib2 2026-04-26 21:21 403K
20260426T18Z_MSC_RDPS_AirTemp_IsbL-0200_RLatLon0.09_PT002H.grib2 2026-04-26 21:21 414K
20260426T18Z_MSC_RDPS_AirTemp_IsbL-0225_RLatLon0.09_PT002H.grib2 2026-04-26 21:21 416K
20260426T18Z_MSC_RDPS_AirTemp_IsbL-0250_RLatLon0.09_PT002H.grib2 2026-04-26 21:21 420K
20260426T18Z_MSC_RDPS_AirTemp_IsbL-0275_RLatLon0.09_PT002H.grib2 2026-04-26 21:21 401K
20260426T18Z_MSC_RDPS_AirTemp_IsbL-0300_RLatLon0.09_PT002H.grib2 2026-04-26 21:21 407K
20260426T18Z_MSC_RDPS_AirTemp_IsbL-0350_RLatLon0.09_PT002H.grib2 2026-04-26 21:21 420K
20260426T18Z_MSC_RDPS_AirTemp_IsbL-0400_RLatLon0.09_PT002H.grib2 2026-04-26 21:21 419K
20260426T18Z_MSC_RDPS_AirTemp_IsbL-0450_RLatLon0.09_PT002H.grib2 2026-04-26 21:21 392K
20260426T18Z_MSC_RDPS_AirTemp_IsbL-0500_RLatLon0.09_PT002H.grib2 2026-04-26 21:21 406K
20260426T18Z_MSC_RDPS_AirTemp_IsbL-0550_RLatLon0.09_PT002H.grib2 2026-04-26 21:21 461K
20260426T18Z_MSC_RDPS_AirTemp_IsbL-0600_RLatLon0.09_PT002H.grib2 2026-04-26 21:21 444K
20260426T18Z_MSC_RDPS_AirTemp_IsbL-0650_RLatLon0.09_PT002H.grib2 2026-04-26 21:21 457K
20260426T18Z_MSC_RDPS_AirTemp_IsbL-0700_RLatLon0.09_PT002H.grib2 2026-04-26 21:21 485K
20260426T18Z_MSC_RDPS_AirTemp_IsbL-0750_RLatLon0.09_PT002H.grib2 2026-04-26 21:21 415K
20260426T18Z_MSC_RDPS_AirTemp_IsbL-0800_RLatLon0.09_PT002H.grib2 2026-04-26 21:21 462K
20260426T18Z_MSC_RDPS_AirTemp_IsbL-0850_RLatLon0.09_PT002H.grib2 2026-04-26 21:21 507K
20260426T18Z_MSC_RDPS_AirTemp_IsbL-0875_RLatLon0.09_PT002H.grib2 2026-04-26 21:21 519K
20260426T18Z_MSC_RDPS_AirTemp_IsbL-0900_RLatLon0.09_PT002H.grib2 2026-04-26 21:21 525K
20260426T18Z_MSC_RDPS_AirTemp_IsbL-0925_RLatLon0.09_PT002H.grib2 2026-04-26 21:21 533K
20260426T18Z_MSC_RDPS_AirTemp_IsbL-0950_RLatLon0.09_PT002H.grib2 2026-04-26 21:21 535K
20260426T18Z_MSC_RDPS_AirTemp_IsbL-0970_RLatLon0.09_PT002H.grib2 2026-04-26 21:21 534K
20260426T18Z_MSC_RDPS_AirTemp_IsbL-0985_RLatLon0.09_PT002H.grib2 2026-04-26 21:21 528K
20260426T18Z_MSC_RDPS_AirTemp_IsbL-1000_RLatLon0.09_PT002H.grib2 2026-04-26 21:21 514K
20260426T18Z_MSC_RDPS_AirTemp_IsbL-1015_RLatLon0.09_PT002H.grib2 2026-04-26 21:21 509K
20260426T18Z_MSC_RDPS_Albedo_Sfc_RLatLon0.09_PT002H.grib2 2026-04-26 21:21 168K
20260426T18Z_MSC_RDPS_CAPE_Sfc_RLatLon0.09_PT002H.grib2 2026-04-26 21:21 1.7M
20260426T18Z_MSC_RDPS_CIN_Sfc_RLatLon0.09_PT002H.grib2 2026-04-26 21:21 1.3M
20260426T18Z_MSC_RDPS_CloudWater_EAtm_RLatLon0.09_PT002H.grib2 2026-04-26 21:21 217K
20260426T18Z_MSC_RDPS_ConvectivePrecip-Accum_Sfc_RLatLon0.09_PT002H.grib2 2026-04-26 21:21 425K
20260426T18Z_MSC_RDPS_DewPointDepression_AGL-2m_RLatLon0.09_PT002H.grib2 2026-04-26 21:21 420K
20260426T18Z_MSC_RDPS_DewPointDepression_IsbL-0001_RLatLon0.09_PT002H.grib2 2026-04-26 21:21 193
20260426T18Z_MSC_RDPS_DewPointDepression_IsbL-0005_RLatLon0.09_PT002H.grib2 2026-04-26 21:21 193
20260426T18Z_MSC_RDPS_DewPointDepression_IsbL-0010_RLatLon0.09_PT002H.grib2 2026-04-26 21:21 193
20260426T18Z_MSC_RDPS_DewPointDepression_IsbL-0020_RLatLon0.09_PT002H.grib2 2026-04-26 21:21 193
20260426T18Z_MSC_RDPS_DewPointDepression_IsbL-0030_RLatLon0.09_PT002H.grib2 2026-04-26 21:21 193
20260426T18Z_MSC_RDPS_DewPointDepression_IsbL-0050_RLatLon0.09_PT002H.grib2 2026-04-26 21:21 89K
20260426T18Z_MSC_RDPS_DewPointDepression_IsbL-0100_RLatLon0.09_PT002H.grib2 2026-04-26 21:21 121K
20260426T18Z_MSC_RDPS_DewPointDepression_IsbL-0150_RLatLon0.09_PT002H.grib2 2026-04-26 21:21 150K
20260426T18Z_MSC_RDPS_DewPointDepression_IsbL-0175_RLatLon0.09_PT002H.grib2 2026-04-26 21:21 192K
20260426T18Z_MSC_RDPS_DewPointDepression_IsbL-0200_RLatLon0.09_PT002H.grib2 2026-04-26 21:21 232K
20260426T18Z_MSC_RDPS_DewPointDepression_IsbL-0225_RLatLon0.09_PT002H.grib2 2026-04-26 21:21 270K
20260426T18Z_MSC_RDPS_DewPointDepression_IsbL-0250_RLatLon0.09_PT002H.grib2 2026-04-26 21:21 309K
20260426T18Z_MSC_RDPS_DewPointDepression_IsbL-0275_RLatLon0.09_PT002H.grib2 2026-04-26 21:21 319K
20260426T18Z_MSC_RDPS_DewPointDepression_IsbL-0300_RLatLon0.09_PT002H.grib2 2026-04-26 21:21 334K
20260426T18Z_MSC_RDPS_DewPointDepression_IsbL-0350_RLatLon0.09_PT002H.grib2 2026-04-26 21:21 333K
20260426T18Z_MSC_RDPS_DewPointDepression_IsbL-0400_RLatLon0.09_PT002H.grib2 2026-04-26 21:21 341K
20260426T18Z_MSC_RDPS_DewPointDepression_IsbL-0450_RLatLon0.09_PT002H.grib2 2026-04-26 21:21 350K
20260426T18Z_MSC_RDPS_DewPointDepression_IsbL-0500_RLatLon0.09_PT002H.grib2 2026-04-26 21:21 357K
20260426T18Z_MSC_RDPS_DewPointDepression_IsbL-0550_RLatLon0.09_PT002H.grib2 2026-04-26 21:21 368K
20260426T18Z_MSC_RDPS_DewPointDepression_IsbL-0600_RLatLon0.09_PT002H.grib2 2026-04-26 21:21 376K
20260426T18Z_MSC_RDPS_DewPointDepression_IsbL-0650_RLatLon0.09_PT002H.grib2 2026-04-26 21:21 378K
20260426T18Z_MSC_RDPS_DewPointDepression_IsbL-0700_RLatLon0.09_PT002H.grib2 2026-04-26 21:21 390K
20260426T18Z_MSC_RDPS_DewPointDepression_IsbL-0750_RLatLon0.09_PT002H.grib2 2026-04-26 21:21 417K
20260426T18Z_MSC_RDPS_DewPointDepression_IsbL-0800_RLatLon0.09_PT002H.grib2 2026-04-26 21:21 455K
20260426T18Z_MSC_RDPS_DewPointDepression_IsbL-0850_RLatLon0.09_PT002H.grib2 2026-04-26 21:21 478K
20260426T18Z_MSC_RDPS_DewPointDepression_IsbL-0875_RLatLon0.09_PT002H.grib2 2026-04-26 21:21 476K
20260426T18Z_MSC_RDPS_DewPointDepression_IsbL-0900_RLatLon0.09_PT002H.grib2 2026-04-26 21:21 466K
20260426T18Z_MSC_RDPS_DewPointDepression_IsbL-0925_RLatLon0.09_PT002H.grib2 2026-04-26 21:21 456K
20260426T18Z_MSC_RDPS_DewPointDepression_IsbL-0950_RLatLon0.09_PT002H.grib2 2026-04-26 21:21 447K
20260426T18Z_MSC_RDPS_DewPointDepression_IsbL-0970_RLatLon0.09_PT002H.grib2 2026-04-26 21:21 438K
20260426T18Z_MSC_RDPS_DewPointDepression_IsbL-0985_RLatLon0.09_PT002H.grib2 2026-04-26 21:21 434K
20260426T18Z_MSC_RDPS_DewPointDepression_IsbL-1000_RLatLon0.09_PT002H.grib2 2026-04-26 21:21 429K
20260426T18Z_MSC_RDPS_DewPointDepression_IsbL-1015_RLatLon0.09_PT002H.grib2 2026-04-26 21:21 422K
20260426T18Z_MSC_RDPS_DewPoint_AGL-2m_RLatLon0.09_PT002H.grib2 2026-04-26 21:21 312K
20260426T18Z_MSC_RDPS_DownwardLongwaveRadiationFlux-Accum_Sfc_RLatLon0.09_PT002H.grib2 2026-04-26 21:21 527K
20260426T18Z_MSC_RDPS_DownwardShortwaveRadiationFlux-Accum_NTAtm_RLatLon0.09_PT002H.grib2 2026-04-26 21:21 149K
20260426T18Z_MSC_RDPS_DownwardShortwaveRadiationFlux-Accum_Sfc_RLatLon0.09_PT002H.grib2 2026-04-26 21:21 604K
20260426T18Z_MSC_RDPS_FreezingRain-Accum1h_Sfc_RLatLon0.09_PT002H.grib2 2026-04-26 21:21 8.3K
20260426T18Z_MSC_RDPS_FreezingRain-Accum_Sfc_RLatLon0.09_PT002H.grib2 2026-04-26 21:21 14K
20260426T18Z_MSC_RDPS_GeopotentialHeight_IsbL-0001_RLatLon0.09_PT002H.grib2 2026-04-26 21:21 280K
20260426T18Z_MSC_RDPS_GeopotentialHeight_IsbL-0005_RLatLon0.09_PT002H.grib2 2026-04-26 21:21 342K
20260426T18Z_MSC_RDPS_GeopotentialHeight_IsbL-0010_RLatLon0.09_PT002H.grib2 2026-04-26 21:21 309K
20260426T18Z_MSC_RDPS_GeopotentialHeight_IsbL-0020_RLatLon0.09_PT002H.grib2 2026-04-26 21:21 308K
20260426T18Z_MSC_RDPS_GeopotentialHeight_IsbL-0030_RLatLon0.09_PT002H.grib2 2026-04-26 21:21 406K
20260426T18Z_MSC_RDPS_GeopotentialHeight_IsbL-0050_RLatLon0.09_PT002H.grib2 2026-04-26 21:21 310K
20260426T18Z_MSC_RDPS_GeopotentialHeight_IsbL-0100_RLatLon0.09_PT002H.grib2 2026-04-26 21:21 288K
20260426T18Z_MSC_RDPS_GeopotentialHeight_IsbL-0150_RLatLon0.09_PT002H.grib2 2026-04-26 21:21 230K
20260426T18Z_MSC_RDPS_GeopotentialHeight_IsbL-0175_RLatLon0.09_PT002H.grib2 2026-04-26 21:21 233K
20260426T18Z_MSC_RDPS_GeopotentialHeight_IsbL-0200_RLatLon0.09_PT002H.grib2 2026-04-26 21:21 267K
20260426T18Z_MSC_RDPS_GeopotentialHeight_IsbL-0225_RLatLon0.09_PT002H.grib2 2026-04-26 21:21 269K
20260426T18Z_MSC_RDPS_GeopotentialHeight_IsbL-0250_RLatLon0.09_PT002H.grib2 2026-04-26 21:21 270K
20260426T18Z_MSC_RDPS_GeopotentialHeight_IsbL-0275_RLatLon0.09_PT002H.grib2 2026-04-26 21:21 270K
20260426T18Z_MSC_RDPS_GeopotentialHeight_IsbL-0300_RLatLon0.09_PT002H.grib2 2026-04-26 21:21 238K
20260426T18Z_MSC_RDPS_GeopotentialHeight_IsbL-0350_RLatLon0.09_PT002H.grib2 2026-04-26 21:21 233K
20260426T18Z_MSC_RDPS_GeopotentialHeight_IsbL-0400_RLatLon0.09_PT002H.grib2 2026-04-26 21:21 230K
20260426T18Z_MSC_RDPS_GeopotentialHeight_IsbL-0450_RLatLon0.09_PT002H.grib2 2026-04-26 21:21 297K
20260426T18Z_MSC_RDPS_GeopotentialHeight_IsbL-0500_RLatLon0.09_PT002H.grib2 2026-04-26 21:21 292K
20260426T18Z_MSC_RDPS_GeopotentialHeight_IsbL-0550_RLatLon0.09_PT002H.grib2 2026-04-26 21:21 289K
20260426T18Z_MSC_RDPS_GeopotentialHeight_IsbL-0600_RLatLon0.09_PT002H.grib2 2026-04-26 21:21 285K
20260426T18Z_MSC_RDPS_GeopotentialHeight_IsbL-0650_RLatLon0.09_PT002H.grib2 2026-04-26 21:21 284K
20260426T18Z_MSC_RDPS_GeopotentialHeight_IsbL-0700_RLatLon0.09_PT002H.grib2 2026-04-26 21:21 283K
20260426T18Z_MSC_RDPS_GeopotentialHeight_IsbL-0750_RLatLon0.09_PT002H.grib2 2026-04-26 21:21 284K
20260426T18Z_MSC_RDPS_GeopotentialHeight_IsbL-0800_RLatLon0.09_PT002H.grib2 2026-04-26 21:21 265K
20260426T18Z_MSC_RDPS_GeopotentialHeight_IsbL-0850_RLatLon0.09_PT002H.grib2 2026-04-26 21:21 272K
20260426T18Z_MSC_RDPS_GeopotentialHeight_IsbL-0875_RLatLon0.09_PT002H.grib2 2026-04-26 21:21 275K
20260426T18Z_MSC_RDPS_GeopotentialHeight_IsbL-0900_RLatLon0.09_PT002H.grib2 2026-04-26 21:21 278K
20260426T18Z_MSC_RDPS_GeopotentialHeight_IsbL-0925_RLatLon0.09_PT002H.grib2 2026-04-26 21:21 281K
20260426T18Z_MSC_RDPS_GeopotentialHeight_IsbL-0950_RLatLon0.09_PT002H.grib2 2026-04-26 21:21 284K
20260426T18Z_MSC_RDPS_GeopotentialHeight_IsbL-0970_RLatLon0.09_PT002H.grib2 2026-04-26 21:21 291K
20260426T18Z_MSC_RDPS_GeopotentialHeight_IsbL-0985_RLatLon0.09_PT002H.grib2 2026-04-26 21:21 299K
20260426T18Z_MSC_RDPS_GeopotentialHeight_IsbL-1000_RLatLon0.09_PT002H.grib2 2026-04-26 21:21 309K
20260426T18Z_MSC_RDPS_GeopotentialHeight_IsbL-1015_RLatLon0.09_PT002H.grib2 2026-04-26 21:21 321K
20260426T18Z_MSC_RDPS_Humidex_Sfc_RLatLon0.09_PT002H.grib2 2026-04-26 21:21 2.2M
20260426T18Z_MSC_RDPS_IcePellets-Accum1h_Sfc_RLatLon0.09_PT002H.grib2 2026-04-26 21:21 5.0K
20260426T18Z_MSC_RDPS_IcePellets-Accum_Sfc_RLatLon0.09_PT002H.grib2 2026-04-26 21:21 6.0K
20260426T18Z_MSC_RDPS_KIndex_Sfc_RLatLon0.09_PT002H.grib2 2026-04-26 21:21 2.3M
20260426T18Z_MSC_RDPS_LatentHeatNetFlux_Sfc_RLatLon0.09_PT002H.grib2 2026-04-26 21:21 307K
20260426T18Z_MSC_RDPS_LiftedIndex-MU-VT_IsbL-0500_RLatLon0.09_PT002H.grib2 2026-04-26 21:21 2.4M
20260426T18Z_MSC_RDPS_NetLongwaveRadiationFlux-Accum_Sfc_RLatLon0.09_PT002H.grib2 2026-04-26 21:21 549K
20260426T18Z_MSC_RDPS_NetShortwaveRadiationFlux-Accum_Sfc_RLatLon0.09_PT002H.grib2 2026-04-26 21:21 592K
20260426T18Z_MSC_RDPS_PlanetaryBoundaryLayerHeight_Sfc_RLatLon0.09_PT002H.grib2 2026-04-26 21:21 1.0M
20260426T18Z_MSC_RDPS_Precip-Accum1h_Sfc_RLatLon0.09_PT002H.grib2 2026-04-26 21:21 1.2M
20260426T18Z_MSC_RDPS_Precip-Accum_Sfc_RLatLon0.09_PT002H.grib2 2026-04-26 21:21 1.2M
20260426T18Z_MSC_RDPS_PrecipRate_Sfc_RLatLon0.09_PT002H.grib2 2026-04-26 21:21 171K
20260426T18Z_MSC_RDPS_PrecipType-Instant_Sfc_RLatLon0.09_PT002H.grib2 2026-04-26 21:21 592K
20260426T18Z_MSC_RDPS_Pressure_MSL_RLatLon0.09_PT002H.grib2 2026-04-26 21:21 333K
20260426T18Z_MSC_RDPS_Pressure_PVU-1.5_RLatLon0.09_PT002H.grib2 2026-04-26 21:21 2.4M
20260426T18Z_MSC_RDPS_Pressure_PVU-1_RLatLon0.09_PT002H.grib2 2026-04-26 21:21 2.4M
20260426T18Z_MSC_RDPS_Pressure_PVU-2_RLatLon0.09_PT002H.grib2 2026-04-26 21:21 2.4M
20260426T18Z_MSC_RDPS_Pressure_Sfc_RLatLon0.09_PT002H.grib2 2026-04-26 21:21 500K
20260426T18Z_MSC_RDPS_RadiativeTemp_Sfc_RLatLon0.09_PT002H.grib2 2026-04-26 21:21 329K
20260426T18Z_MSC_RDPS_Rain-Accum1h_Sfc_RLatLon0.09_PT002H.grib2 2026-04-26 21:21 527K
20260426T18Z_MSC_RDPS_Rain-Accum_Sfc_RLatLon0.09_PT002H.grib2 2026-04-26 21:21 858K
20260426T18Z_MSC_RDPS_RelativeHumidity_AGL-2m_RLatLon0.09_PT002H.grib2 2026-04-26 21:21 1.0M
20260426T18Z_MSC_RDPS_RelativeHumidity_IsbL-0010_RLatLon0.09_PT002H.grib2 2026-04-26 21:21 630K
20260426T18Z_MSC_RDPS_RelativeHumidity_IsbL-0020_RLatLon0.09_PT002H.grib2 2026-04-26 21:21 653K
20260426T18Z_MSC_RDPS_RelativeHumidity_IsbL-0030_RLatLon0.09_PT002H.grib2 2026-04-26 21:21 536K
20260426T18Z_MSC_RDPS_RelativeHumidity_IsbL-0050_RLatLon0.09_PT002H.grib2 2026-04-26 21:21 320K
20260426T18Z_MSC_RDPS_RelativeHumidity_IsbL-0100_RLatLon0.09_PT002H.grib2 2026-04-26 21:21 262K
20260426T18Z_MSC_RDPS_RelativeHumidity_IsbL-0150_RLatLon0.09_PT002H.grib2 2026-04-26 21:21 397K
20260426T18Z_MSC_RDPS_RelativeHumidity_IsbL-0175_RLatLon0.09_PT002H.grib2 2026-04-26 21:21 478K
20260426T18Z_MSC_RDPS_RelativeHumidity_IsbL-0200_RLatLon0.09_PT002H.grib2 2026-04-26 21:21 560K
20260426T18Z_MSC_RDPS_RelativeHumidity_IsbL-0225_RLatLon0.09_PT002H.grib2 2026-04-26 21:21 627K
20260426T18Z_MSC_RDPS_RelativeHumidity_IsbL-0250_RLatLon0.09_PT002H.grib2 2026-04-26 21:21 700K
20260426T18Z_MSC_RDPS_RelativeHumidity_IsbL-0275_RLatLon0.09_PT002H.grib2 2026-04-26 21:21 729K
20260426T18Z_MSC_RDPS_RelativeHumidity_IsbL-0300_RLatLon0.09_PT002H.grib2 2026-04-26 21:21 768K
20260426T18Z_MSC_RDPS_RelativeHumidity_IsbL-0350_RLatLon0.09_PT002H.grib2 2026-04-26 21:21 780K
20260426T18Z_MSC_RDPS_RelativeHumidity_IsbL-0400_RLatLon0.09_PT002H.grib2 2026-04-26 21:21 788K
20260426T18Z_MSC_RDPS_RelativeHumidity_IsbL-0450_RLatLon0.09_PT002H.grib2 2026-04-26 21:21 795K
20260426T18Z_MSC_RDPS_RelativeHumidity_IsbL-0500_RLatLon0.09_PT002H.grib2 2026-04-26 21:21 814K
20260426T18Z_MSC_RDPS_RelativeHumidity_IsbL-0550_RLatLon0.09_PT002H.grib2 2026-04-26 21:21 831K
20260426T18Z_MSC_RDPS_RelativeHumidity_IsbL-0600_RLatLon0.09_PT002H.grib2 2026-04-26 21:21 851K
20260426T18Z_MSC_RDPS_RelativeHumidity_IsbL-0650_RLatLon0.09_PT002H.grib2 2026-04-26 21:21 865K
20260426T18Z_MSC_RDPS_RelativeHumidity_IsbL-0700_RLatLon0.09_PT002H.grib2 2026-04-26 21:21 893K
20260426T18Z_MSC_RDPS_RelativeHumidity_IsbL-0750_RLatLon0.09_PT002H.grib2 2026-04-26 21:21 942K
20260426T18Z_MSC_RDPS_RelativeHumidity_IsbL-0800_RLatLon0.09_PT002H.grib2 2026-04-26 21:21 1.0M
20260426T18Z_MSC_RDPS_RelativeHumidity_IsbL-0850_RLatLon0.09_PT002H.grib2 2026-04-26 21:21 1.1M
20260426T18Z_MSC_RDPS_RelativeHumidity_IsbL-0875_RLatLon0.09_PT002H.grib2 2026-04-26 21:21 1.1M
20260426T18Z_MSC_RDPS_RelativeHumidity_IsbL-0900_RLatLon0.09_PT002H.grib2 2026-04-26 21:21 1.1M
20260426T18Z_MSC_RDPS_RelativeHumidity_IsbL-0925_RLatLon0.09_PT002H.grib2 2026-04-26 21:21 1.1M
20260426T18Z_MSC_RDPS_RelativeHumidity_IsbL-0950_RLatLon0.09_PT002H.grib2 2026-04-26 21:21 1.1M
20260426T18Z_MSC_RDPS_RelativeHumidity_IsbL-0970_RLatLon0.09_PT002H.grib2 2026-04-26 21:21 1.0M
20260426T18Z_MSC_RDPS_RelativeHumidity_IsbL-0985_RLatLon0.09_PT002H.grib2 2026-04-26 21:21 1.0M
20260426T18Z_MSC_RDPS_RelativeHumidity_IsbL-1000_RLatLon0.09_PT002H.grib2 2026-04-26 21:21 1.0M
20260426T18Z_MSC_RDPS_RelativeHumidity_IsbL-1015_RLatLon0.09_PT002H.grib2 2026-04-26 21:21 1.0M
20260426T18Z_MSC_RDPS_Runoff-Accum_Sfc_RLatLon0.09_PT002H.grib2 2026-04-26 21:21 34K
20260426T18Z_MSC_RDPS_SWEATIndex_Sfc_RLatLon0.09_PT002H.grib2 2026-04-26 21:21 2.4M
20260426T18Z_MSC_RDPS_SeeingIndex_EAtm_RLatLon0.09_PT002H.grib2 2026-04-26 21:21 1.0M
20260426T18Z_MSC_RDPS_SensibleHeatNetFlux_Sfc_RLatLon0.09_PT002H.grib2 2026-04-26 21:21 364K
20260426T18Z_MSC_RDPS_ShowalterIndex_IsbL-0500_RLatLon0.09_PT002H.grib2 2026-04-26 21:21 2.5M
20260426T18Z_MSC_RDPS_SkyTransparencyIndex_EAtm_RLatLon0.09_PT002H.grib2 2026-04-26 21:21 715K
20260426T18Z_MSC_RDPS_Snow-Accum1h_Sfc_RLatLon0.09_PT002H.grib2 2026-04-26 21:21 513K
20260426T18Z_MSC_RDPS_Snow-Accum_Sfc_RLatLon0.09_PT002H.grib2 2026-04-26 21:21 670K
20260426T18Z_MSC_RDPS_SnowDensity_Sfc_RLatLon0.09_PT002H.grib2 2026-04-26 21:21 177K
20260426T18Z_MSC_RDPS_SnowDepth_Sfc_RLatLon0.09_PT002H.grib2 2026-04-26 21:21 711K
20260426T18Z_MSC_RDPS_SoilTemp_DBS-0to10cm_RLatLon0.09_PT002H.grib2 2026-04-26 21:21 192K
20260426T18Z_MSC_RDPS_SoilTemp_Sfc_RLatLon0.09_PT002H.grib2 2026-04-26 21:21 283K
20260426T18Z_MSC_RDPS_SoilVolumetricIceContent_Sfc_RLatLon0.09_PT002H.grib2 2026-04-26 21:21 168K
20260426T18Z_MSC_RDPS_SoilVolumetricWaterContent_DBS-0to10cm_RLatLon0.09_PT002H.grib2 2026-04-26 21:21 257K
20260426T18Z_MSC_RDPS_SoilVolumetricWaterContent_DBS-0to1cm_RLatLon0.09_PT002H.grib2 2026-04-26 21:21 333K
20260426T18Z_MSC_RDPS_SpecificHumidity_AGL-120m_RLatLon0.09_PT002H.grib2 2026-04-26 21:21 488K
20260426T18Z_MSC_RDPS_SpecificHumidity_AGL-2m_RLatLon0.09_PT002H.grib2 2026-04-26 21:21 655K
20260426T18Z_MSC_RDPS_SpecificHumidity_AGL-40m_RLatLon0.09_PT002H.grib2 2026-04-26 21:21 492K
20260426T18Z_MSC_RDPS_SpecificHumidity_AGL-80m_RLatLon0.09_PT002H.grib2 2026-04-26 21:21 489K
20260426T18Z_MSC_RDPS_SpecificHumidity_IsbL-0001_RLatLon0.09_PT002H.grib2 2026-04-26 21:21 342K
20260426T18Z_MSC_RDPS_SpecificHumidity_IsbL-0005_RLatLon0.09_PT002H.grib2 2026-04-26 21:21 350K
20260426T18Z_MSC_RDPS_SpecificHumidity_IsbL-0010_RLatLon0.09_PT002H.grib2 2026-04-26 21:21 392K
20260426T18Z_MSC_RDPS_SpecificHumidity_IsbL-0020_RLatLon0.09_PT002H.grib2 2026-04-26 21:21 384K
20260426T18Z_MSC_RDPS_SpecificHumidity_IsbL-0030_RLatLon0.09_PT002H.grib2 2026-04-26 21:21 477K
20260426T18Z_MSC_RDPS_SpecificHumidity_IsbL-0050_RLatLon0.09_PT002H.grib2 2026-04-26 21:21 469K
20260426T18Z_MSC_RDPS_SpecificHumidity_IsbL-0100_RLatLon0.09_PT002H.grib2 2026-04-26 21:21 433K
20260426T18Z_MSC_RDPS_SpecificHumidity_IsbL-0150_RLatLon0.09_PT002H.grib2 2026-04-26 21:21 442K
20260426T18Z_MSC_RDPS_SpecificHumidity_IsbL-0175_RLatLon0.09_PT002H.grib2 2026-04-26 21:21 446K
20260426T18Z_MSC_RDPS_SpecificHumidity_IsbL-0200_RLatLon0.09_PT002H.grib2 2026-04-26 21:21 462K
20260426T18Z_MSC_RDPS_SpecificHumidity_IsbL-0225_RLatLon0.09_PT002H.grib2 2026-04-26 21:21 461K
20260426T18Z_MSC_RDPS_SpecificHumidity_IsbL-0250_RLatLon0.09_PT002H.grib2 2026-04-26 21:21 569K
20260426T18Z_MSC_RDPS_SpecificHumidity_IsbL-0275_RLatLon0.09_PT002H.grib2 2026-04-26 21:21 486K
20260426T18Z_MSC_RDPS_SpecificHumidity_IsbL-0300_RLatLon0.09_PT002H.grib2 2026-04-26 21:21 454K
20260426T18Z_MSC_RDPS_SpecificHumidity_IsbL-0350_RLatLon0.09_PT002H.grib2 2026-04-26 21:21 562K
20260426T18Z_MSC_RDPS_SpecificHumidity_IsbL-0400_RLatLon0.09_PT002H.grib2 2026-04-26 21:21 513K
20260426T18Z_MSC_RDPS_SpecificHumidity_IsbL-0450_RLatLon0.09_PT002H.grib2 2026-04-26 21:21 565K
20260426T18Z_MSC_RDPS_SpecificHumidity_IsbL-0500_RLatLon0.09_PT002H.grib2 2026-04-26 21:21 501K
20260426T18Z_MSC_RDPS_SpecificHumidity_IsbL-0550_RLatLon0.09_PT002H.grib2 2026-04-26 21:21 572K
20260426T18Z_MSC_RDPS_SpecificHumidity_IsbL-0600_RLatLon0.09_PT002H.grib2 2026-04-26 21:21 621K
20260426T18Z_MSC_RDPS_SpecificHumidity_IsbL-0650_RLatLon0.09_PT002H.grib2 2026-04-26 21:21 540K
20260426T18Z_MSC_RDPS_SpecificHumidity_IsbL-0700_RLatLon0.09_PT002H.grib2 2026-04-26 21:21 584K
20260426T18Z_MSC_RDPS_SpecificHumidity_IsbL-0750_RLatLon0.09_PT002H.grib2 2026-04-26 21:21 646K
20260426T18Z_MSC_RDPS_SpecificHumidity_IsbL-0800_RLatLon0.09_PT002H.grib2 2026-04-26 21:21 737K
20260426T18Z_MSC_RDPS_SpecificHumidity_IsbL-0850_RLatLon0.09_PT002H.grib2 2026-04-26 21:21 674K
20260426T18Z_MSC_RDPS_SpecificHumidity_IsbL-0875_RLatLon0.09_PT002H.grib2 2026-04-26 21:21 693K
20260426T18Z_MSC_RDPS_SpecificHumidity_IsbL-0900_RLatLon0.09_PT002H.grib2 2026-04-26 21:21 702K
20260426T18Z_MSC_RDPS_SpecificHumidity_IsbL-0925_RLatLon0.09_PT002H.grib2 2026-04-26 21:21 702K
20260426T18Z_MSC_RDPS_SpecificHumidity_IsbL-0950_RLatLon0.09_PT002H.grib2 2026-04-26 21:21 697K
20260426T18Z_MSC_RDPS_SpecificHumidity_IsbL-0970_RLatLon0.09_PT002H.grib2 2026-04-26 21:21 688K
20260426T18Z_MSC_RDPS_SpecificHumidity_IsbL-0985_RLatLon0.09_PT002H.grib2 2026-04-26 21:21 681K
20260426T18Z_MSC_RDPS_SpecificHumidity_IsbL-1000_RLatLon0.09_PT002H.grib2 2026-04-26 21:21 675K
20260426T18Z_MSC_RDPS_SpecificHumidity_IsbL-1015_RLatLon0.09_PT002H.grib2 2026-04-26 21:21 668K
20260426T18Z_MSC_RDPS_SpecificHumidity_Sfc_RLatLon0.09_PT002H.grib2 2026-04-26 21:21 342K
20260426T18Z_MSC_RDPS_StormRelativeHelicity_EtaL-10000_RLatLon0.09_PT002H.grib2 2026-04-26 21:21 1.1M
20260426T18Z_MSC_RDPS_StormSeverityIndex_EtaL-10000_RLatLon0.09_PT002H.grib2 2026-04-26 21:21 1.2M
20260426T18Z_MSC_RDPS_Thickness_IsbL-0850to0700_RLatLon0.09_PT002H.grib2 2026-04-26 21:21 179K
20260426T18Z_MSC_RDPS_Thickness_IsbL-1000to0500_RLatLon0.09_PT002H.grib2 2026-04-26 21:21 205K
20260426T18Z_MSC_RDPS_Thickness_IsbL-1000to0850_RLatLon0.09_PT002H.grib2 2026-04-26 21:21 191K
20260426T18Z_MSC_RDPS_TotalCloudCover_Sfc_RLatLon0.09_PT002H.grib2 2026-04-26 21:21 662K
20260426T18Z_MSC_RDPS_TotalTotalsIndex_Sfc_RLatLon0.09_PT002H.grib2 2026-04-26 21:21 2.4M
20260426T18Z_MSC_RDPS_UVIndex-ClearSky_Sfc_RLatLon0.09_PT002H.grib2 2026-04-26 21:21 216K
20260426T18Z_MSC_RDPS_UVIndex_Sfc_RLatLon0.09_PT002H.grib2 2026-04-26 21:21 506K
20260426T18Z_MSC_RDPS_UpwardLongwaveRadiationFlux_NTAtm_RLatLon0.09_PT002H.grib2 2026-04-26 21:21 386K
20260426T18Z_MSC_RDPS_UpwardShortwaveRadiationFlux_NTAtm_RLatLon0.09_PT002H.grib2 2026-04-26 21:21 546K
20260426T18Z_MSC_RDPS_VerticalVelocity_IsbL-0250_RLatLon0.09_PT002H.grib2 2026-04-26 21:21 423K
20260426T18Z_MSC_RDPS_VerticalVelocity_IsbL-0500_RLatLon0.09_PT002H.grib2 2026-04-26 21:21 535K
20260426T18Z_MSC_RDPS_VerticalVelocity_IsbL-0700_RLatLon0.09_PT002H.grib2 2026-04-26 21:21 594K
20260426T18Z_MSC_RDPS_VerticalVelocity_IsbL-0850_RLatLon0.09_PT002H.grib2 2026-04-26 21:21 708K
20260426T18Z_MSC_RDPS_VerticalWindShear_EtaL-6500_RLatLon0.09_PT002H.grib2 2026-04-26 21:21 1.2M
20260426T18Z_MSC_RDPS_WindChill_Sfc_RLatLon0.09_PT002H.grib2 2026-04-26 21:21 1.1M
20260426T18Z_MSC_RDPS_WindDir_AGL-10m_RLatLon0.09_PT002H.grib2 2026-04-26 21:21 1.0M
20260426T18Z_MSC_RDPS_WindDir_AGL-120m_RLatLon0.09_PT002H.grib2 2026-04-26 21:21 623K
20260426T18Z_MSC_RDPS_WindDir_AGL-40m_RLatLon0.09_PT002H.grib2 2026-04-26 21:21 643K
20260426T18Z_MSC_RDPS_WindDir_AGL-80m_RLatLon0.09_PT002H.grib2 2026-04-26 21:21 632K
20260426T18Z_MSC_RDPS_WindDir_IsbL-0001_RLatLon0.09_PT002H.grib2 2026-04-26 21:21 266K
20260426T18Z_MSC_RDPS_WindDir_IsbL-0005_RLatLon0.09_PT002H.grib2 2026-04-26 21:21 361K
20260426T18Z_MSC_RDPS_WindDir_IsbL-0010_RLatLon0.09_PT002H.grib2 2026-04-26 21:21 375K
20260426T18Z_MSC_RDPS_WindDir_IsbL-0020_RLatLon0.09_PT002H.grib2 2026-04-26 21:21 383K
20260426T18Z_MSC_RDPS_WindDir_IsbL-0030_RLatLon0.09_PT002H.grib2 2026-04-26 21:21 396K
20260426T18Z_MSC_RDPS_WindDir_IsbL-0050_RLatLon0.09_PT002H.grib2 2026-04-26 21:21 417K
20260426T18Z_MSC_RDPS_WindDir_IsbL-0100_RLatLon0.09_PT002H.grib2 2026-04-26 21:21 412K
20260426T18Z_MSC_RDPS_WindDir_IsbL-0150_RLatLon0.09_PT002H.grib2 2026-04-26 21:21 414K
20260426T18Z_MSC_RDPS_WindDir_IsbL-0175_RLatLon0.09_PT002H.grib2 2026-04-26 21:21 439K
20260426T18Z_MSC_RDPS_WindDir_IsbL-0200_RLatLon0.09_PT002H.grib2 2026-04-26 21:21 447K
20260426T18Z_MSC_RDPS_WindDir_IsbL-0225_RLatLon0.09_PT002H.grib2 2026-04-26 21:21 447K
20260426T18Z_MSC_RDPS_WindDir_IsbL-0250_RLatLon0.09_PT002H.grib2 2026-04-26 21:21 451K
20260426T18Z_MSC_RDPS_WindDir_IsbL-0275_RLatLon0.09_PT002H.grib2 2026-04-26 21:21 474K
20260426T18Z_MSC_RDPS_WindDir_IsbL-0300_RLatLon0.09_PT002H.grib2 2026-04-26 21:21 472K
20260426T18Z_MSC_RDPS_WindDir_IsbL-0350_RLatLon0.09_PT002H.grib2 2026-04-26 21:21 493K
20260426T18Z_MSC_RDPS_WindDir_IsbL-0400_RLatLon0.09_PT002H.grib2 2026-04-26 21:21 505K
20260426T18Z_MSC_RDPS_WindDir_IsbL-0450_RLatLon0.09_PT002H.grib2 2026-04-26 21:21 515K
20260426T18Z_MSC_RDPS_WindDir_IsbL-0500_RLatLon0.09_PT002H.grib2 2026-04-26 21:21 532K
20260426T18Z_MSC_RDPS_WindDir_IsbL-0550_RLatLon0.09_PT002H.grib2 2026-04-26 21:21 549K
20260426T18Z_MSC_RDPS_WindDir_IsbL-0600_RLatLon0.09_PT002H.grib2 2026-04-26 21:21 580K
20260426T18Z_MSC_RDPS_WindDir_IsbL-0650_RLatLon0.09_PT002H.grib2 2026-04-26 21:21 627K
20260426T18Z_MSC_RDPS_WindDir_IsbL-0700_RLatLon0.09_PT002H.grib2 2026-04-26 21:21 677K
20260426T18Z_MSC_RDPS_WindDir_IsbL-0750_RLatLon0.09_PT002H.grib2 2026-04-26 21:21 735K
20260426T18Z_MSC_RDPS_WindDir_IsbL-0800_RLatLon0.09_PT002H.grib2 2026-04-26 21:21 818K
20260426T18Z_MSC_RDPS_WindDir_IsbL-0850_RLatLon0.09_PT002H.grib2 2026-04-26 21:21 898K
20260426T18Z_MSC_RDPS_WindDir_IsbL-0875_RLatLon0.09_PT002H.grib2 2026-04-26 21:21 918K
20260426T18Z_MSC_RDPS_WindDir_IsbL-0900_RLatLon0.09_PT002H.grib2 2026-04-26 21:21 925K
20260426T18Z_MSC_RDPS_WindDir_IsbL-0925_RLatLon0.09_PT002H.grib2 2026-04-26 21:21 925K
20260426T18Z_MSC_RDPS_WindDir_IsbL-0950_RLatLon0.09_PT002H.grib2 2026-04-26 21:21 920K
20260426T18Z_MSC_RDPS_WindDir_IsbL-0970_RLatLon0.09_PT002H.grib2 2026-04-26 21:21 926K
20260426T18Z_MSC_RDPS_WindDir_IsbL-0985_RLatLon0.09_PT002H.grib2 2026-04-26 21:21 938K
20260426T18Z_MSC_RDPS_WindDir_IsbL-1000_RLatLon0.09_PT002H.grib2 2026-04-26 21:21 953K
20260426T18Z_MSC_RDPS_WindDir_IsbL-1015_RLatLon0.09_PT002H.grib2 2026-04-26 21:21 967K
20260426T18Z_MSC_RDPS_WindGust-Max_AGL-10m_RLatLon0.09_PT002H.grib2 2026-04-26 21:21 940K
20260426T18Z_MSC_RDPS_WindGust-Min_AGL-10m_RLatLon0.09_PT002H.grib2 2026-04-26 21:21 967K
20260426T18Z_MSC_RDPS_WindGust_AGL-10m_RLatLon0.09_PT002H.grib2 2026-04-26 21:21 927K
20260426T18Z_MSC_RDPS_WindSpeed_AGL-10m_RLatLon0.09_PT002H.grib2 2026-04-26 21:21 844K
20260426T18Z_MSC_RDPS_WindSpeed_AGL-120m_RLatLon0.09_PT002H.grib2 2026-04-26 21:21 547K
20260426T18Z_MSC_RDPS_WindSpeed_AGL-40m_RLatLon0.09_PT002H.grib2 2026-04-26 21:21 553K
20260426T18Z_MSC_RDPS_WindSpeed_AGL-80m_RLatLon0.09_PT002H.grib2 2026-04-26 21:21 549K
20260426T18Z_MSC_RDPS_WindSpeed_IsbL-0001_RLatLon0.09_PT002H.grib2 2026-04-26 21:21 292K
20260426T18Z_MSC_RDPS_WindSpeed_IsbL-0005_RLatLon0.09_PT002H.grib2 2026-04-26 21:21 287K
20260426T18Z_MSC_RDPS_WindSpeed_IsbL-0010_RLatLon0.09_PT002H.grib2 2026-04-26 21:21 298K
20260426T18Z_MSC_RDPS_WindSpeed_IsbL-0020_RLatLon0.09_PT002H.grib2 2026-04-26 21:21 313K
20260426T18Z_MSC_RDPS_WindSpeed_IsbL-0030_RLatLon0.09_PT002H.grib2 2026-04-26 21:21 313K
20260426T18Z_MSC_RDPS_WindSpeed_IsbL-0050_RLatLon0.09_PT002H.grib2 2026-04-26 21:21 343K
20260426T18Z_MSC_RDPS_WindSpeed_IsbL-0100_RLatLon0.09_PT002H.grib2 2026-04-26 21:21 423K
20260426T18Z_MSC_RDPS_WindSpeed_IsbL-0150_RLatLon0.09_PT002H.grib2 2026-04-26 21:21 368K
20260426T18Z_MSC_RDPS_WindSpeed_IsbL-0175_RLatLon0.09_PT002H.grib2 2026-04-26 21:21 421K
20260426T18Z_MSC_RDPS_WindSpeed_IsbL-0200_RLatLon0.09_PT002H.grib2 2026-04-26 21:21 417K
20260426T18Z_MSC_RDPS_WindSpeed_IsbL-0225_RLatLon0.09_PT002H.grib2 2026-04-26 21:21 447K
20260426T18Z_MSC_RDPS_WindSpeed_IsbL-0250_RLatLon0.09_PT002H.grib2 2026-04-26 21:21 451K
20260426T18Z_MSC_RDPS_WindSpeed_IsbL-0275_RLatLon0.09_PT002H.grib2 2026-04-26 21:21 468K
20260426T18Z_MSC_RDPS_WindSpeed_IsbL-0300_RLatLon0.09_PT002H.grib2 2026-04-26 21:21 465K
20260426T18Z_MSC_RDPS_WindSpeed_IsbL-0350_RLatLon0.09_PT002H.grib2 2026-04-26 21:21 474K
20260426T18Z_MSC_RDPS_WindSpeed_IsbL-0400_RLatLon0.09_PT002H.grib2 2026-04-26 21:21 454K
20260426T18Z_MSC_RDPS_WindSpeed_IsbL-0450_RLatLon0.09_PT002H.grib2 2026-04-26 21:21 450K
20260426T18Z_MSC_RDPS_WindSpeed_IsbL-0500_RLatLon0.09_PT002H.grib2 2026-04-26 21:21 451K
20260426T18Z_MSC_RDPS_WindSpeed_IsbL-0550_RLatLon0.09_PT002H.grib2 2026-04-26 21:21 571K
20260426T18Z_MSC_RDPS_WindSpeed_IsbL-0600_RLatLon0.09_PT002H.grib2 2026-04-26 21:21 585K
20260426T18Z_MSC_RDPS_WindSpeed_IsbL-0650_RLatLon0.09_PT002H.grib2 2026-04-26 21:21 652K
20260426T18Z_MSC_RDPS_WindSpeed_IsbL-0700_RLatLon0.09_PT002H.grib2 2026-04-26 21:21 676K
20260426T18Z_MSC_RDPS_WindSpeed_IsbL-0750_RLatLon0.09_PT002H.grib2 2026-04-26 21:21 709K
20260426T18Z_MSC_RDPS_WindSpeed_IsbL-0800_RLatLon0.09_PT002H.grib2 2026-04-26 21:21 763K
20260426T18Z_MSC_RDPS_WindSpeed_IsbL-0850_RLatLon0.09_PT002H.grib2 2026-04-26 21:21 819K
20260426T18Z_MSC_RDPS_WindSpeed_IsbL-0875_RLatLon0.09_PT002H.grib2 2026-04-26 21:21 837K
20260426T18Z_MSC_RDPS_WindSpeed_IsbL-0900_RLatLon0.09_PT002H.grib2 2026-04-26 21:21 802K
20260426T18Z_MSC_RDPS_WindSpeed_IsbL-0925_RLatLon0.09_PT002H.grib2 2026-04-26 21:21 808K
20260426T18Z_MSC_RDPS_WindSpeed_IsbL-0950_RLatLon0.09_PT002H.grib2 2026-04-26 21:21 805K
20260426T18Z_MSC_RDPS_WindSpeed_IsbL-0970_RLatLon0.09_PT002H.grib2 2026-04-26 21:21 807K
20260426T18Z_MSC_RDPS_WindSpeed_IsbL-0985_RLatLon0.09_PT002H.grib2 2026-04-26 21:21 856K
20260426T18Z_MSC_RDPS_WindSpeed_IsbL-1000_RLatLon0.09_PT002H.grib2 2026-04-26 21:21 854K
20260426T18Z_MSC_RDPS_WindSpeed_IsbL-1015_RLatLon0.09_PT002H.grib2 2026-04-26 21:21 844K
20260426T18Z_MSC_RDPS_WindU_AGL-10m_RLatLon0.09_PT002H.grib2 2026-04-26 21:21 437K
20260426T18Z_MSC_RDPS_WindU_AGL-120m_RLatLon0.09_PT002H.grib2 2026-04-26 21:21 417K
20260426T18Z_MSC_RDPS_WindU_AGL-40m_RLatLon0.09_PT002H.grib2 2026-04-26 21:21 539K
20260426T18Z_MSC_RDPS_WindU_AGL-80m_RLatLon0.09_PT002H.grib2 2026-04-26 21:21 536K
20260426T18Z_MSC_RDPS_WindU_IsbL-0001_RLatLon0.09_PT002H.grib2 2026-04-26 21:21 288K
20260426T18Z_MSC_RDPS_WindU_IsbL-0005_RLatLon0.09_PT002H.grib2 2026-04-26 21:21 280K
20260426T18Z_MSC_RDPS_WindU_IsbL-0010_RLatLon0.09_PT002H.grib2 2026-04-26 21:21 289K
20260426T18Z_MSC_RDPS_WindU_IsbL-0020_RLatLon0.09_PT002H.grib2 2026-04-26 21:21 346K
20260426T18Z_MSC_RDPS_WindU_IsbL-0030_RLatLon0.09_PT002H.grib2 2026-04-26 21:21 344K
20260426T18Z_MSC_RDPS_WindU_IsbL-0050_RLatLon0.09_PT002H.grib2 2026-04-26 21:21 337K
20260426T18Z_MSC_RDPS_WindU_IsbL-0100_RLatLon0.09_PT002H.grib2 2026-04-26 21:21 324K
20260426T18Z_MSC_RDPS_WindU_IsbL-0150_RLatLon0.09_PT002H.grib2 2026-04-26 21:21 386K
20260426T18Z_MSC_RDPS_WindU_IsbL-0175_RLatLon0.09_PT002H.grib2 2026-04-26 21:21 414K
20260426T18Z_MSC_RDPS_WindU_IsbL-0200_RLatLon0.09_PT002H.grib2 2026-04-26 21:21 432K
20260426T18Z_MSC_RDPS_WindU_IsbL-0225_RLatLon0.09_PT002H.grib2 2026-04-26 21:21 340K
20260426T18Z_MSC_RDPS_WindU_IsbL-0250_RLatLon0.09_PT002H.grib2 2026-04-26 21:21 342K
20260426T18Z_MSC_RDPS_WindU_IsbL-0275_RLatLon0.09_PT002H.grib2 2026-04-26 21:21 356K
20260426T18Z_MSC_RDPS_WindU_IsbL-0300_RLatLon0.09_PT002H.grib2 2026-04-26 21:21 352K
20260426T18Z_MSC_RDPS_WindU_IsbL-0350_RLatLon0.09_PT002H.grib2 2026-04-26 21:21 359K
20260426T18Z_MSC_RDPS_WindU_IsbL-0400_RLatLon0.09_PT002H.grib2 2026-04-26 21:21 460K
20260426T18Z_MSC_RDPS_WindU_IsbL-0450_RLatLon0.09_PT002H.grib2 2026-04-26 21:21 457K
20260426T18Z_MSC_RDPS_WindU_IsbL-0500_RLatLon0.09_PT002H.grib2 2026-04-26 21:21 459K
20260426T18Z_MSC_RDPS_WindU_IsbL-0550_RLatLon0.09_PT002H.grib2 2026-04-26 21:21 444K
20260426T18Z_MSC_RDPS_WindU_IsbL-0600_RLatLon0.09_PT002H.grib2 2026-04-26 21:21 458K
20260426T18Z_MSC_RDPS_WindU_IsbL-0650_RLatLon0.09_PT002H.grib2 2026-04-26 21:21 479K
20260426T18Z_MSC_RDPS_WindU_IsbL-0700_RLatLon0.09_PT002H.grib2 2026-04-26 21:21 502K
20260426T18Z_MSC_RDPS_WindU_IsbL-0750_RLatLon0.09_PT002H.grib2 2026-04-26 21:21 531K
20260426T18Z_MSC_RDPS_WindU_IsbL-0800_RLatLon0.09_PT002H.grib2 2026-04-26 21:21 579K
20260426T18Z_MSC_RDPS_WindU_IsbL-0850_RLatLon0.09_PT002H.grib2 2026-04-26 21:21 628K
20260426T18Z_MSC_RDPS_WindU_IsbL-0875_RLatLon0.09_PT002H.grib2 2026-04-26 21:21 642K
20260426T18Z_MSC_RDPS_WindU_IsbL-0900_RLatLon0.09_PT002H.grib2 2026-04-26 21:21 651K
20260426T18Z_MSC_RDPS_WindU_IsbL-0925_RLatLon0.09_PT002H.grib2 2026-04-26 21:21 654K
20260426T18Z_MSC_RDPS_WindU_IsbL-0950_RLatLon0.09_PT002H.grib2 2026-04-26 21:21 649K
20260426T18Z_MSC_RDPS_WindU_IsbL-0970_RLatLon0.09_PT002H.grib2 2026-04-26 21:21 788K
20260426T18Z_MSC_RDPS_WindU_IsbL-0985_RLatLon0.09_PT002H.grib2 2026-04-26 21:21 790K
20260426T18Z_MSC_RDPS_WindU_IsbL-1000_RLatLon0.09_PT002H.grib2 2026-04-26 21:21 788K
20260426T18Z_MSC_RDPS_WindU_IsbL-1015_RLatLon0.09_PT002H.grib2 2026-04-26 21:21 784K
20260426T18Z_MSC_RDPS_WindV_AGL-10m_RLatLon0.09_PT002H.grib2 2026-04-26 21:21 435K
20260426T18Z_MSC_RDPS_WindV_AGL-120m_RLatLon0.09_PT002H.grib2 2026-04-26 21:21 417K
20260426T18Z_MSC_RDPS_WindV_AGL-40m_RLatLon0.09_PT002H.grib2 2026-04-26 21:21 419K
20260426T18Z_MSC_RDPS_WindV_AGL-80m_RLatLon0.09_PT002H.grib2 2026-04-26 21:21 418K
20260426T18Z_MSC_RDPS_WindV_IsbL-0001_RLatLon0.09_PT002H.grib2 2026-04-26 21:21 205K
20260426T18Z_MSC_RDPS_WindV_IsbL-0005_RLatLon0.09_PT002H.grib2 2026-04-26 21:21 322K
20260426T18Z_MSC_RDPS_WindV_IsbL-0010_RLatLon0.09_PT002H.grib2 2026-04-26 21:21 289K
20260426T18Z_MSC_RDPS_WindV_IsbL-0020_RLatLon0.09_PT002H.grib2 2026-04-26 21:21 345K
20260426T18Z_MSC_RDPS_WindV_IsbL-0030_RLatLon0.09_PT002H.grib2 2026-04-26 21:21 345K
20260426T18Z_MSC_RDPS_WindV_IsbL-0050_RLatLon0.09_PT002H.grib2 2026-04-26 21:21 334K
20260426T18Z_MSC_RDPS_WindV_IsbL-0100_RLatLon0.09_PT002H.grib2 2026-04-26 21:21 319K
20260426T18Z_MSC_RDPS_WindV_IsbL-0150_RLatLon0.09_PT002H.grib2 2026-04-26 21:21 382K
20260426T18Z_MSC_RDPS_WindV_IsbL-0175_RLatLon0.09_PT002H.grib2 2026-04-26 21:21 411K
20260426T18Z_MSC_RDPS_WindV_IsbL-0200_RLatLon0.09_PT002H.grib2 2026-04-26 21:21 428K
20260426T18Z_MSC_RDPS_WindV_IsbL-0225_RLatLon0.09_PT002H.grib2 2026-04-26 21:21 435K
20260426T18Z_MSC_RDPS_WindV_IsbL-0250_RLatLon0.09_PT002H.grib2 2026-04-26 21:21 339K
20260426T18Z_MSC_RDPS_WindV_IsbL-0275_RLatLon0.09_PT002H.grib2 2026-04-26 21:21 353K
20260426T18Z_MSC_RDPS_WindV_IsbL-0300_RLatLon0.09_PT002H.grib2 2026-04-26 21:21 374K
20260426T18Z_MSC_RDPS_WindV_IsbL-0350_RLatLon0.09_PT002H.grib2 2026-04-26 21:21 355K
20260426T18Z_MSC_RDPS_WindV_IsbL-0400_RLatLon0.09_PT002H.grib2 2026-04-26 21:21 354K
20260426T18Z_MSC_RDPS_WindV_IsbL-0450_RLatLon0.09_PT002H.grib2 2026-04-26 21:21 352K
20260426T18Z_MSC_RDPS_WindV_IsbL-0500_RLatLon0.09_PT002H.grib2 2026-04-26 21:21 453K
20260426T18Z_MSC_RDPS_WindV_IsbL-0550_RLatLon0.09_PT002H.grib2 2026-04-26 21:21 459K
20260426T18Z_MSC_RDPS_WindV_IsbL-0600_RLatLon0.09_PT002H.grib2 2026-04-26 21:21 470K
20260426T18Z_MSC_RDPS_WindV_IsbL-0650_RLatLon0.09_PT002H.grib2 2026-04-26 21:21 491K
20260426T18Z_MSC_RDPS_WindV_IsbL-0700_RLatLon0.09_PT002H.grib2 2026-04-26 21:21 512K
20260426T18Z_MSC_RDPS_WindV_IsbL-0750_RLatLon0.09_PT002H.grib2 2026-04-26 21:21 525K
20260426T18Z_MSC_RDPS_WindV_IsbL-0800_RLatLon0.09_PT002H.grib2 2026-04-26 21:21 572K
20260426T18Z_MSC_RDPS_WindV_IsbL-0850_RLatLon0.09_PT002H.grib2 2026-04-26 21:21 622K
20260426T18Z_MSC_RDPS_WindV_IsbL-0875_RLatLon0.09_PT002H.grib2 2026-04-26 21:21 646K
20260426T18Z_MSC_RDPS_WindV_IsbL-0900_RLatLon0.09_PT002H.grib2 2026-04-26 21:21 653K
20260426T18Z_MSC_RDPS_WindV_IsbL-0925_RLatLon0.09_PT002H.grib2 2026-04-26 21:21 657K
20260426T18Z_MSC_RDPS_WindV_IsbL-0950_RLatLon0.09_PT002H.grib2 2026-04-26 21:21 653K
20260426T18Z_MSC_RDPS_WindV_IsbL-0970_RLatLon0.09_PT002H.grib2 2026-04-26 21:21 648K
20260426T18Z_MSC_RDPS_WindV_IsbL-0985_RLatLon0.09_PT002H.grib2 2026-04-26 21:21 650K
20260426T18Z_MSC_RDPS_WindV_IsbL-1000_RLatLon0.09_PT002H.grib2 2026-04-26 21:21 648K
20260426T18Z_MSC_RDPS_WindV_IsbL-1015_RLatLon0.09_PT002H.grib2 2026-04-26 21:21 782K